Location: Arcusa
(42.3167°N, 0.0833°W)
Time: 21:48:54
(UTC+00:00)

Meteor 1-16 Rocket - Pass Details

Date: 25 January 2020
Orbit: 789 x 908 km, 81.2° (Epoch: 17 February)

Event Time Altitude Azimuth Distance (km) Brightness Sun altitude
Rises 05:15:57 0° 191° (S) 3,521 7.4 -23.0°
Reaches altitude 10° 05:18:25 10° 192° (SSW) 2,581 6.6 -22.6°
Maximum altitude 05:24:19 81° 279° (W) 915 4.2 -21.5°
Drops below altitude 10° 05:30:11 10° 8° (N) 2,553 6.7 -20.4°
Sets 05:32:37 0° 9° (N) 3,481 7.4 -19.9°
